.
WxDataArchive / Data Records for 2012-08-24
2012-08-23 August 2012 2012-08-25

Data Records for Friday, 24 August 2012

Time	Temp	Chill	HIndex	Humid	Dewpt	 Wind 	HiWind	WindDir	Rain 	Barom 
-----	----	-----	------	-----	-----	------	------	-------	-----	----- 
00:00	65.6	65.6	65.6	81	59.6	0	0	---	0.00	30.072 
00:05	65.5	65.5	65.5	81	59.5	0	0	---	0.00	30.072 
00:10	65.3	65.3	65.3	82	59.7	0	0	---	0.00	30.072 
00:15	65.2	65.2	65.2	82	59.6	0	0	---	0.00	30.072 
00:20	65.0	65.0	65.0	83	59.7	0	0	---	0.00	30.072 
00:25	64.8	64.8	64.8	83	59.5	0	0	---	0.00	30.072 
00:30	64.7	64.7	64.7	83	59.4	0	0	---	0.00	30.071 
00:35	64.5	64.5	64.5	83	59.2	0	0	---	0.00	30.071 
00:40	64.3	64.3	64.3	84	59.4	0	0	---	0.00	30.071 
00:45	64.2	64.2	64.2	84	59.3	0	0	---	0.00	30.067 
00:50	64.0	64.0	64.0	84	59.1	0	0	---	0.00	30.067 
00:55	63.9	63.9	63.9	84	59.0	0	0	---	0.00	30.067 
01:00	63.9	63.9	63.9	84	59.0	0	0	---	0.00	30.069 
01:05	63.7	63.7	63.7	84	58.8	0	0	---	0.00	30.069 
01:10	63.5	63.5	63.5	84	58.6	0	0	---	0.00	30.069 
01:15	63.5	63.5	63.5	84	58.6	0	0	---	0.00	30.069 
01:20	63.4	63.4	63.4	84	58.5	0	0	---	0.00	30.069 
01:25	63.2	63.2	63.2	84	58.3	0	0	---	0.00	30.069 
01:30	63.1	63.1	63.1	84	58.2	0	0	---	0.00	30.068 
01:35	62.9	62.9	62.9	84	58.0	0	0	---	0.00	30.068 
01:40	62.9	62.9	62.9	84	58.0	0	0	---	0.00	30.068 
01:45	62.7	62.7	62.7	84	57.8	0	0	---	0.00	30.070 
01:50	62.6	62.6	62.6	85	58.0	0	0	---	0.00	30.070 
01:55	62.6	62.6	62.6	85	58.0	0	0	---	0.00	30.070 
02:00	62.6	62.6	62.6	85	58.0	0	0	---	0.00	30.072 
02:05	62.4	62.4	62.4	85	57.8	0	0	---	0.00	30.072 
02:10	62.4	62.4	62.4	85	57.8	0	0	---	0.00	30.072 
02:15	62.3	62.3	62.3	85	57.7	0	0	---	0.00	30.074 
02:20	62.3	62.3	62.3	85	57.7	0	0	---	0.00	30.074 
02:25	62.1	62.1	62.1	85	57.5	0	0	---	0.00	30.074 
02:30	62.1	62.1	62.1	85	57.5	0	0	---	0.00	30.070 
02:35	62.0	62.0	62.0	85	57.4	0	0	---	0.00	30.070 
02:40	61.8	61.8	61.8	85	57.2	0	0	---	0.00	30.070 
02:45	61.8	61.8	61.8	85	57.2	0	0	---	0.00	30.064 
02:50	61.6	61.6	61.6	85	57.0	0	0	---	0.00	30.064 
02:55	61.5	61.5	61.5	85	56.9	0	0	---	0.00	30.064 
03:00	61.5	61.5	61.5	86	57.3	0	0	---	0.00	30.065 
03:05	61.3	61.3	61.3	86	57.1	0	0	---	0.00	30.065 
03:10	61.2	61.2	61.2	86	57.0	0	0	---	0.00	30.065 
03:15	61.2	61.2	61.2	86	57.0	0	0	---	0.00	30.067 
03:20	61.0	61.0	61.0	87	57.1	0	0	---	0.00	30.067 
03:25	61.0	61.0	61.0	87	57.1	0	0	---	0.00	30.067 
03:30	60.9	60.9	60.9	87	57.0	0	0	---	0.00	30.061 
03:35	60.9	60.9	60.9	87	57.0	0	0	---	0.00	30.061 
03:40	60.7	60.7	60.7	87	56.8	0	0	---	0.00	30.061 
03:45	60.7	60.7	60.7	87	56.8	0	0	---	0.00	30.059 
03:50	60.5	60.5	60.5	88	56.9	0	0	---	0.00	30.059 
03:55	60.5	60.5	60.5	88	56.9	0	0	---	0.00	30.059 
04:00	60.5	60.5	60.5	88	56.9	0	0	---	0.00	30.058 
04:05	60.4	60.4	60.4	88	56.8	0	0	---	0.00	30.058 
04:10	60.4	60.4	60.4	88	56.8	0	0	---	0.00	30.058 
04:15	60.2	60.2	60.2	88	56.6	0	0	---	0.00	30.051 
04:20	60.2	60.2	60.2	89	56.9	0	0	---	0.00	30.051 
04:25	60.2	60.2	60.2	89	56.9	0	0	---	0.00	30.051 
04:30	60.2	60.2	60.2	89	56.9	0	0	---	0.00	30.054 
04:35	60.1	60.1	60.1	89	56.8	0	0	---	0.00	30.054 
04:40	59.9	59.9	59.9	89	56.6	0	0	---	0.00	30.054 
04:45	59.8	59.8	59.8	90	56.9	0	0	---	0.00	30.056 
04:50	59.8	59.8	59.8	90	56.9	0	0	---	0.00	30.056 
04:55	59.6	59.6	59.6	90	56.7	0	0	---	0.00	30.056 
05:00	59.6	59.6	59.6	90	56.7	0	0	---	0.00	30.054 
05:05	59.5	59.5	59.5	90	56.6	0	0	---	0.00	30.054 
05:10	59.5	59.5	59.5	90	56.6	0	0	---	0.00	30.054 
05:15	59.5	59.5	59.5	91	56.9	0	0	---	0.00	30.060 
05:20	59.3	59.3	59.3	91	56.7	0	0	---	0.00	30.060 
05:25	59.3	59.3	59.3	91	56.7	0	0	---	0.00	30.060 
05:30	59.3	59.3	59.3	91	56.7	0	0	---	0.00	30.062 
05:35	59.2	59.2	59.2	91	56.6	0	0	---	0.00	30.062 
05:40	59.2	59.2	59.2	92	56.9	0	0	---	0.00	30.062 
05:45	59.2	59.2	59.2	92	56.9	0	0	---	0.00	30.064 
05:50	59.2	59.2	59.2	92	56.9	0	0	---	0.00	30.064 
05:55	59.0	59.0	59.0	92	56.7	0	0	---	0.00	30.064 
06:00	58.9	58.9	58.9	92	56.6	0	0	---	0.00	30.063 
06:05	58.7	58.7	58.7	92	56.4	0	0	---	0.00	30.063 
06:10	58.7	58.7	58.7	92	56.4	0	0	---	0.00	30.063 
06:15	58.6	58.6	58.6	92	56.3	0	0	---	0.00	30.069 
06:20	58.6	58.6	58.6	92	56.3	0	0	---	0.00	30.069 
06:25	58.4	58.4	58.4	92	56.1	0	0	---	0.00	30.069 
06:30	58.4	58.4	58.4	92	56.1	0	0	---	0.00	30.073 
06:35	58.3	58.3	58.3	92	56.0	0	0	---	0.00	30.073 
06:40	58.1	58.1	58.1	92	55.8	0	0	---	0.00	30.073 
06:45	58.1	58.1	58.1	92	55.8	0	0	---	0.00	30.069 
06:50	58.0	58.0	58.0	92	55.7	0	0	---	0.00	30.069 
06:55	57.8	57.8	57.8	92	55.5	0	0	---	0.00	30.069 
07:00	57.8	57.8	57.8	92	55.5	0	0	---	0.00	30.074 
07:05	57.8	57.8	57.8	92	55.5	0	0	---	0.00	30.074 
07:10	57.8	57.8	57.8	92	55.5	0	0	---	0.00	30.074 
07:15	57.8	57.8	57.8	92	55.5	0	0	---	0.00	30.084 
07:20	57.8	57.8	57.8	92	55.5	0	0	---	0.00	30.084 
07:25	57.8	57.8	57.8	93	55.8	0	0	---	0.00	30.084 
07:30	58.1	58.1	58.1	93	56.1	0	1	135	0.00	30.086 
07:35	58.4	58.4	58.4	93	56.4	0	0	---	0.00	30.086 
07:40	58.6	58.6	58.6	93	56.6	0	1	135	0.00	30.086 
07:45	58.7	58.7	58.7	93	56.7	0	0	---	0.00	30.091 
07:50	59.3	59.3	59.3	92	57.0	0	1	135	0.00	30.091 
07:55	59.8	59.8	59.8	92	57.5	0	0	---	0.00	30.091 
08:00	60.5	60.5	60.5	91	57.9	0	0	---	0.00	30.088 
08:05	61.2	61.2	61.2	89	57.9	0	0	---	0.00	30.088 
08:10	61.5	61.5	61.5	88	57.9	0	0	---	0.00	30.088 
08:15	62.1	62.1	62.1	88	58.5	0	0	---	0.00	30.093 
08:20	63.1	63.1	63.1	85	58.5	0	0	---	0.00	30.093 
08:25	64.2	64.2	64.2	82	58.6	0	1	135	0.00	30.093 
08:30	65.0	65.0	65.0	79	58.3	0	1	135	0.00	30.092 
08:35	66.0	66.0	66.0	78	58.9	0	1	135	0.00	30.092 
08:40	66.6	66.6	66.6	76	58.8	0	1	135	0.00	30.092 
08:45	66.9	66.9	66.9	76	59.1	0	0	---	0.00	30.088 
08:50	67.3	67.3	67.3	75	59.1	0	2	135	0.00	30.088 
08:55	67.9	67.9	67.9	73	58.9	0	1	135	0.00	30.088 
09:00	68.6	68.6	68.6	73	59.6	0	0	---	0.00	30.085 
09:05	68.9	68.9	68.9	71	59.1	0	1	135	0.00	30.085 
09:10	69.3	69.3	69.3	70	59.1	0	1	135	0.00	30.085 
09:15	69.8	69.8	69.8	69	59.2	0	1	135	0.00	30.091 
09:20	70.3	70.3	70.3	68	59.2	0	1	135	0.00	30.091 
09:25	70.6	70.6	70.6	68	59.5	0	1	135	0.00	30.091 
09:30	70.9	70.9	70.9	66	59.0	0	1	135	0.00	30.092 
09:35	71.5	71.5	71.5	66	59.5	0	1	135	0.00	30.092 
09:40	72.0	72.0	72.0	64	59.1	0	1	135	0.00	30.092 
09:45	72.5	72.5	72.5	65	60.0	0	2	135	0.00	30.089 
09:50	73.0	73.0	73.0	62	59.2	0	1	135	0.00	30.089 
09:55	73.7	73.7	73.7	61	59.4	0	1	135	0.00	30.089 
10:00	74.0	74.0	74.0	62	60.1	0	3	135	0.00	30.091 
10:05	74.6	74.6	74.6	61	60.2	0	1	135	0.00	30.091 
10:10	75.3	75.3	77.5	61	60.9	0	1	135	0.00	30.091 
10:15	75.8	75.8	77.9	58	59.9	0	2	180	0.00	30.092 
10:20	76.5	76.5	78.4	56	59.6	0	2	180	0.00	30.092 
10:25	77.2	77.2	78.8	54	59.2	1	3	180	0.00	30.092 
10:30	77.7	77.7	79.2	55	60.2	1	3	158	0.00	30.091 
10:35	78.3	78.3	79.6	53	59.7	0	2	248	0.00	30.091 
10:40	79.0	79.0	80.0	51	59.3	0	1	248	0.00	30.091 
10:45	79.8	79.8	80.5	49	58.9	0	2	248	0.00	30.090 
10:50	80.7	80.7	81.2	48	59.2	0	2	112	0.00	30.090 
10:55	81.2	81.2	81.7	48	59.6	0	2	112	0.00	30.090 
11:00	82.0	82.0	82.3	47	59.8	0	1	112	0.00	30.087 
11:05	82.6	82.6	82.7	45	59.1	0	2	112	0.00	30.087 
11:10	83.0	83.0	82.9	44	58.8	0	2	112	0.00	30.087 
11:15	83.4	83.4	83.3	44	59.2	0	2	112	0.00	30.088 
11:20	83.6	83.6	83.5	44	59.3	0	2	112	0.00	30.088 
11:25	84.0	84.0	84.1	45	60.3	0	3	112	0.00	30.088 
11:30	84.0	84.0	84.0	44	59.7	0	3	45	0.00	30.086 
11:35	84.3	84.3	84.3	44	60.0	0	1	45	0.00	30.086 
11:40	84.7	84.7	84.6	43	59.7	1	4	112	0.00	30.086 
11:45	84.9	84.9	85.0	44	60.5	0	2	112	0.00	30.080 
11:50	85.1	85.1	84.8	42	59.4	0	3	112	0.00	30.080 
11:55	85.1	85.1	84.4	40	58.0	1	4	112	0.00	30.080 
12:00	84.7	84.7	84.7	44	60.3	1	4	112	0.00	30.078 
12:05	84.9	84.9	85.0	44	60.5	0	1	112	0.00	30.078 
12:10	85.5	85.5	85.3	42	59.8	0	2	270	0.00	30.078 
12:15	86.3	86.3	86.7	44	61.8	0	1	292	0.00	30.074 
12:20	87.0	87.0	86.6	40	59.7	0	2	90	0.00	30.074 
12:25	87.0	87.0	86.2	38	58.3	1	4	90	0.00	30.074 
12:30	86.7	86.7	86.3	40	59.5	0	2	90	0.00	30.072 
12:35	86.5	86.5	86.3	41	60.0	0	2	90	0.00	30.072 
12:40	87.2	87.2	86.4	38	58.5	0	2	90	0.00	30.072 
12:45	87.6	87.6	87.4	40	60.3	0	2	90	0.00	30.065 
12:50	87.8	87.8	86.7	36	57.5	1	3	90	0.00	30.065 
12:55	88.0	88.0	87.1	37	58.4	0	2	90	0.00	30.065 
13:00	88.2	88.2	87.2	36	57.8	1	3	90	0.00	30.058 
13:05	88.0	88.0	86.7	35	56.9	1	5	90	0.00	30.058 
13:10	87.8	87.8	86.5	35	56.7	1	4	90	0.00	30.058 
13:15	88.0	88.0	87.4	38	59.2	1	2	90	0.00	30.058 
13:20	88.2	88.2	87.4	37	58.6	0	3	90	0.00	30.058 
13:25	88.6	88.6	87.9	37	59.0	0	3	248	0.00	30.058 
13:30	89.0	89.0	87.7	34	56.9	0	2	248	0.00	30.054 
13:35	89.0	89.0	87.7	34	56.9	2	3	22	0.00	30.054 
13:40	89.0	89.0	87.7	34	56.9	0	2	292	0.00	30.054 
13:45	89.3	89.3	88.5	36	58.8	0	2	292	0.00	30.050 
13:50	89.3	89.3	87.3	31	54.7	1	4	292	0.00	30.050 
13:55	89.0	89.0	87.4	33	56.1	1	5	68	0.00	30.050 
14:00	89.0	89.0	87.4	33	56.1	1	3	338	0.00	30.049 
14:05	88.8	88.8	86.8	31	54.2	1	3	270	0.00	30.049 
14:10	88.6	88.6	87.0	33	55.8	0	2	270	0.00	30.049 
14:15	88.8	88.8	87.4	34	56.8	1	3	270	0.00	30.044 
14:20	88.8	88.8	86.8	31	54.2	1	4	22	0.00	30.044 
14:25	89.0	89.0	87.7	34	56.9	0	2	90	0.00	30.044 
14:30	89.3	89.3	87.6	32	55.5	1	3	90	0.00	30.043 
14:35	89.3	89.3	87.6	32	55.5	1	3	90	0.00	30.043 
14:40	89.3	89.3	87.1	30	53.8	1	4	90	0.00	30.043 
14:45	89.3	89.3	87.8	33	56.4	0	1	270	0.00	30.040 
14:50	89.7	89.7	87.6	30	54.1	1	2	270	0.00	30.040 
14:55	89.9	89.9	88.3	32	56.0	1	4	135	0.00	30.040 
15:00	90.1	90.1	88.8	33	57.1	1	5	90	0.00	30.029 
15:05	89.9	89.9	88.0	31	55.2	1	4	112	0.00	30.029 
15:10	89.7	89.7	88.0	32	55.9	1	3	68	0.00	30.029 
15:15	89.5	89.5	87.6	31	54.8	2	5	90	0.00	30.029 
15:20	89.0	89.0	87.2	32	55.3	2	4	135	0.00	30.029 
15:25	88.8	88.8	87.0	32	55.1	1	5	90	0.00	30.029 
15:30	88.8	88.8	87.0	32	55.1	1	3	112	0.00	30.027 
15:35	89.3	89.3	88.3	35	58.0	0	4	270	0.00	30.027 
15:40	89.7	89.7	88.3	33	56.7	1	4	270	0.00	30.027 
15:45	89.7	89.7	88.8	35	58.4	1	3	90	0.00	30.022 
15:50	89.7	89.7	87.8	31	55.0	1	3	315	0.00	30.022 
15:55	89.5	89.5	88.0	33	56.6	2	4	292	0.00	30.022 
16:00	89.3	89.3	87.3	31	54.7	1	4	292	0.00	30.018 
16:05	89.3	89.3	87.6	32	55.5	1	3	292	0.00	30.018 
16:10	89.3	89.3	88.3	35	58.0	0	2	338	0.00	30.018 
16:15	89.3	89.3	87.8	33	56.4	1	3	45	0.00	30.015 
16:20	89.3	89.3	88.3	35	58.0	0	2	45	0.00	30.015 
16:25	89.0	89.0	87.0	31	54.4	2	5	90	0.00	30.015 
16:30	88.8	88.8	87.0	32	55.1	1	3	90	0.00	30.020 
16:35	88.6	88.6	86.4	30	53.2	1	5	90	0.00	30.020 
16:40	88.4	88.4	87.2	35	57.2	1	3	90	0.00	30.020 
16:45	88.6	88.6	86.7	32	54.9	1	3	90	0.00	30.014 
16:50	88.6	88.6	87.0	33	55.8	0	2	338	0.00	30.014 
16:55	88.6	88.6	87.0	33	55.8	1	2	22	0.00	30.014 
17:00	88.4	88.4	86.5	32	54.7	1	4	90	0.00	30.014 
17:05	88.2	88.2	86.3	32	54.6	1	4	112	0.00	30.014 
17:10	88.4	88.4	86.7	33	55.6	1	3	112	0.00	30.014 
17:15	88.6	88.6	87.2	34	56.6	0	1	112	0.00	30.012 
17:20	88.6	88.6	87.6	36	58.2	1	4	90	0.00	30.012 
17:25	88.6	88.6	87.0	33	55.8	1	4	90	0.00	30.012 
17:30	88.0	88.0	86.5	34	56.1	2	9	90	0.00	30.014 
17:35	87.8	87.8	86.1	33	55.1	2	4	90	0.00	30.014 
17:40	87.6	87.6	85.8	33	54.9	1	3	90	0.00	30.014 
17:45	87.4	87.4	86.0	35	56.3	1	2	135	0.00	30.013 
17:50	87.4	87.4	85.6	33	54.7	1	4	90	0.00	30.013 
17:55	87.2	87.2	86.0	36	57.0	0	3	90	0.00	30.013 
18:00	87.2	87.2	85.6	34	55.4	0	2	90	0.00	30.014 
18:05	86.7	86.7	85.2	35	55.7	0	3	90	0.00	30.014 
18:10	86.7	86.7	84.9	33	54.1	0	3	90	0.00	30.014 
18:15	86.5	86.5	84.7	33	53.9	1	4	112	0.00	30.017 
18:20	86.5	86.5	85.0	35	55.6	0	3	112	0.00	30.017 
18:25	86.5	86.5	84.7	33	53.9	0	3	112	0.00	30.017 
18:30	86.3	86.3	84.6	34	54.6	1	2	112	0.00	30.017 
18:35	86.1	86.1	84.6	35	55.2	0	2	112	0.00	30.017 
18:40	85.9	85.9	84.4	35	55.0	1	3	68	0.00	30.017 
18:45	85.7	85.7	84.2	35	54.9	0	2	68	0.00	30.016 
18:50	85.5	85.5	83.8	34	53.9	1	3	68	0.00	30.016 
18:55	85.5	85.5	83.8	34	53.9	0	2	68	0.00	30.016 
19:00	85.3	85.3	84.0	36	55.3	0	2	68	0.00	30.017 
19:05	85.1	85.1	83.8	36	55.1	0	1	68	0.00	30.017 
19:10	84.9	84.9	83.7	37	55.7	0	2	68	0.00	30.017 
19:15	84.7	84.7	83.5	37	55.5	0	2	68	0.00	30.014 
19:20	84.5	84.5	83.5	38	56.1	0	1	68	0.00	30.014 
19:25	84.3	84.3	83.3	38	55.9	0	1	68	0.00	30.014 
19:30	84.3	84.3	83.3	38	55.9	0	2	68	0.00	30.015 
19:35	84.1	84.1	83.2	39	56.4	0	1	68	0.00	30.015 
19:40	84.1	84.1	83.2	39	56.4	0	1	68	0.00	30.015 
19:45	84.0	84.0	83.3	40	57.0	0	0	---	0.00	30.017 
19:50	83.8	83.8	83.1	40	56.9	0	1	68	0.00	30.017 
19:55	83.2	83.2	82.8	42	57.7	0	0	---	0.00	30.017 
20:00	83.0	83.0	82.6	42	57.5	0	0	---	0.00	30.020 
20:05	82.6	82.6	82.4	43	57.8	0	0	---	0.00	30.020 
20:10	82.2	82.2	82.1	44	58.1	0	0	---	0.00	30.020 
20:15	81.8	81.8	81.9	45	58.4	0	0	---	0.00	30.019 
20:20	81.4	81.4	81.5	45	58.0	0	0	---	0.00	30.019 
20:25	80.9	80.9	81.2	46	58.2	0	0	---	0.00	30.019 
20:30	80.5	80.5	80.9	47	58.4	0	0	---	0.00	30.023 
20:35	79.9	79.9	80.6	49	59.0	0	0	---	0.00	30.023 
20:40	79.2	79.2	80.1	50	58.9	0	0	---	0.00	30.023 
20:45	78.8	78.8	79.9	52	59.7	0	0	---	0.00	30.026 
20:50	78.3	78.3	79.6	53	59.7	0	0	---	0.00	30.026 
20:55	77.9	77.9	79.3	54	59.9	0	0	---	0.00	30.026 
21:00	77.4	77.4	79.0	55	59.9	0	0	---	0.00	30.029 
21:05	77.0	77.0	78.7	56	60.1	0	0	---	0.00	30.029 
21:10	76.7	76.7	78.5	57	60.3	0	0	---	0.00	30.029 
21:15	76.1	76.1	78.1	58	60.2	0	0	---	0.00	30.026 
21:20	75.8	75.8	77.9	59	60.4	0	0	---	0.00	30.026 
21:25	75.4	75.4	77.6	59	60.1	0	0	---	0.00	30.026 
21:30	75.1	75.1	77.4	61	60.7	0	0	---	0.00	30.032 
21:35	74.7	74.7	74.7	62	60.8	0	0	---	0.00	30.032 
21:40	74.4	74.4	74.4	62	60.5	0	0	---	0.00	30.032 
21:45	74.2	74.2	74.2	63	60.8	0	0	---	0.00	30.037 
21:50	73.9	73.9	73.9	63	60.5	0	0	---	0.00	30.037 
21:55	73.5	73.5	73.5	65	61.0	0	0	---	0.00	30.037 
22:00	73.2	73.2	73.2	65	60.7	0	0	---	0.00	30.043 
22:05	72.8	72.8	72.8	65	60.3	0	0	---	0.00	30.043 
22:10	72.7	72.7	72.7	66	60.7	0	0	---	0.00	30.043 
22:15	72.3	72.3	72.3	67	60.7	0	0	---	0.00	30.037 
22:20	72.1	72.1	72.1	67	60.5	0	0	---	0.00	30.037 
22:25	72.0	72.0	72.0	68	60.8	0	0	---	0.00	30.037 
22:30	71.6	71.6	71.6	69	60.9	0	0	---	0.00	30.037 
22:35	71.5	71.5	71.5	69	60.8	0	0	---	0.00	30.037 
22:40	71.3	71.3	71.3	70	61.0	0	0	---	0.00	30.037 
22:45	71.1	71.1	71.1	70	60.8	0	0	---	0.00	30.038 
22:50	70.8	70.8	70.8	71	60.9	0	0	---	0.00	30.038 
22:55	70.6	70.6	70.6	72	61.1	0	0	---	0.00	30.038 
23:00	70.4	70.4	70.4	72	60.9	0	0	---	0.00	30.038 
23:05	70.3	70.3	70.3	73	61.2	0	0	---	0.00	30.038 
23:10	70.1	70.1	70.1	73	61.0	0	0	---	0.00	30.038 
23:15	69.9	69.9	69.9	74	61.2	0	0	---	0.00	30.036 
23:20	69.8	69.8	69.8	75	61.5	0	0	---	0.00	30.036 
23:25	69.6	69.6	69.6	76	61.7	0	0	---	0.00	30.036 
23:30	69.4	69.4	69.4	77	61.9	0	0	---	0.00	30.038 
23:35	69.1	69.1	69.1	77	61.6	0	0	---	0.00	30.038 
23:40	68.9	68.9	68.9	77	61.4	0	0	---	0.00	30.038 
23:45	68.8	68.8	68.8	77	61.3	0	0	---	0.00	30.038 
23:50	68.6	68.6	68.6	78	61.5	0	0	---	0.00	30.038 
23:55	68.3	68.3	68.3	79	61.5	0	0	---	0.00	30.038 

CoCoRaHS
IN-AL-39
A2 Web Hosting
Creative Commons License
GoDaddy
search engine by freefind advanced

loaded 2018-11-20 02:58:32 • last modified 2010-11-18 10:43:29
Privacy PolicyDisclaimer
• wx.awcolley.com is powered by PmWiki v.2002016 •
• all content (unless otherwise noted) © 2018 A W Colley